Location: Clatteringshaws Loch
(55.0508°N, 4.2860°W)
Time: 18:23:31
(UTC+01:00)

ALOS - Visible Passes

Search period start: 24 April 2014 00:00
Search period end: 04 May 2014 00:00
Orbit: 688 x 691 km, 98.0° (Epoch: 24 April)

Date Brightness Start Highest point End Pass type
(mag) Time Alt. Az. Time Alt. Az. Time Alt. Az.
24 Apr 3.2 22:31:00 10° S 22:35:30 46° W 22:40:03 10° NNW visible
25 Apr 2.4 21:32:06 10° SSE 21:36:42 61° ENE 21:41:21 10° N visible
25 Apr 4.2 23:10:52 10° SW 23:14:37 23° W 23:18:23 10° NW visible
26 Apr 2.6 22:10:50 10° S 22:15:30 67° WSW 22:20:12 10° NNW visible
26 Apr 4.9 23:52:20 10° WSW 23:53:56 12° W 23:55:33 10° WNW visible
27 Apr 3.7 22:50:16 10° SSW 22:54:29 33° W 22:58:45 10° NNW visible
28 Apr 2.3 21:50:50 10° SSE 21:55:32 86° ENE 22:00:15 10° NNW visible
28 Apr 4.7 23:30:41 10° SW 23:33:42 17° W 23:36:43 10° NW visible
29 Apr 3.1 22:29:54 10° S 22:34:24 47° W 22:38:58 10° NNW visible
30 Apr 2.5 21:31:00 10° SSE 21:35:36 60° ENE 21:40:14 10° N visible
30 Apr 4.2 23:09:44 10° SW 23:13:30 24° W 23:17:17 10° NW visible
01 May 2.6 22:09:42 10° S 22:14:22 68° WSW 22:19:04 10° NNW visible
01 May 4.9 23:51:07 10° WSW 23:52:48 12° W 23:54:30 10° WNW visible
02 May 3.7 22:49:06 10° SSW 22:53:21 33° W 22:57:37 10° NNW visible
03 May 2.3 21:49:41 10° SSE 21:54:22 85° ENE 21:59:06 10° NNW visible
03 May 4.7 23:29:29 10° SW 23:32:32 17° W 23:35:36 10° NW visible
